Weather History for Adana, Turkey

Change the Weather History Date:

Sunday, February 17, 2013

  Actual Average Record
Temperature  
Mean Temperature 53 °F -  
Max Temperature 64 °F 62 °F 71 °F (1997)
Min Temperature 42 °F 43 °F 28 °F (2006)
Degree Days  
Heating Degree Days 12    
Growing Degree Days 3 (Base 50)    
Moisture  
Dew Point 43 °F    
Average Humidity 70    
Maximum Humidity 93    
Minimum Humidity 40    
Precipitation  
Precipitation 0.00 in 0.10 in - ()
Sea Level Pressure  
Sea Level Pressure 29.94 in    
Wind  
Wind Speed 5 mph ()    
Max Wind Speed 14 mph    
Max Gust Speed -    
Visibility 4.4 miles    
Events      
Averages and records for this station are not official NWS values.
T = Trace of Precipitation, MM = Missing Value Source: Averaged Metar Reports

Daily Weather History Graph

Daily Weather History Graph

Search for Another Location

Airport:

Trip Planner

Search our weather history database for the weather conditions in past years. The results will help you decide how hot, cold, wet, or windy it might be!

Date:

Astronomy

Feb. 17, 2013 Rise Set
Actual Time 6:25 AM EET 5:20 PM EET
Civil Twilight 5:58 AM EET 5:47 PM EET
Nautical Twilight 5:28 AM EET 6:17 PM EET
Astronomical Twilight 4:58 AM EET 6:47 PM EET
Moon 10:14 AM EET (2/17) No Moon Set
Length of Visible Light 11h 48m
Length of Day
10h 55m
Waxing Crescent, 46% of the Moon is Illuminated
Feb 17
Waxing Crescent
Feb 17
First Quarter
Feb 25
Full
Mar 4
Last Quarter
Mar 11
New

Hourly Weather History & Observations

Time (EET) Temp. Windchill Dew Point Humidity Pressure Visibility Wind Dir Wind Speed Gust Speed Precip Events Conditions
12:20 AM 50.0 °F - 44.6 °F 82% 29.95 in 3.1 mi NNE 6.9 mph - N/A   Partly Cloudy
12:50 AM 50.0 °F - 44.6 °F 82% 29.95 in 3.1 mi NNE 6.9 mph - N/A   Partly Cloudy
1:20 AM 48.2 °F - 42.8 °F 82% 29.95 in 3.1 mi NNE 5.8 mph - N/A   Partly Cloudy
1:50 AM 48.2 °F - 44.6 °F 87% 29.95 in 3.1 mi NNE 8.1 mph - N/A   Partly Cloudy
2:20 AM 46.4 °F 42.9 °F 42.8 °F 87% 29.95 in 3.1 mi NE 6.9 mph - N/A   Partly Cloudy
2:50 AM 48.2 °F - 42.8 °F 82% 29.92 in 3.1 mi NNE 4.6 mph - N/A   Partly Cloudy
3:20 AM 48.2 °F - 42.8 °F 82% 29.92 in 3.1 mi North 6.9 mph - N/A   Partly Cloudy
3:50 AM 48.2 °F - 42.8 °F 82% 29.92 in 3.1 mi North 3.5 mph - N/A   Partly Cloudy
4:20 AM 44.6 °F - 41.0 °F 87% 29.92 in 3.1 mi Variable 2.3 mph - N/A   Partly Cloudy
4:50 AM 44.6 °F - 41.0 °F 87% 29.92 in 3.1 mi Variable 1.2 mph - N/A   Scattered Clouds
5:20 AM 46.4 °F 45.2 °F 42.8 °F 87% 29.95 in 3.1 mi NNW 3.5 mph - N/A   Scattered Clouds
5:50 AM 46.4 °F - 42.8 °F 87% 29.95 in 3.1 mi NNW 2.3 mph - N/A   Mostly Cloudy
6:20 AM 42.8 °F - 41.0 °F 93% 29.95 in 3.1 mi Calm Calm - N/A   Mostly Cloudy
6:50 AM 44.6 °F 43.1 °F 42.8 °F 93% 29.95 in 3.1 mi NNW 3.5 mph - N/A   Scattered Clouds
7:20 AM 48.2 °F - 42.8 °F 82% 29.95 in 4.3 mi Variable 2.3 mph - N/A   Mostly Cloudy
7:50 AM 48.2 °F - 44.6 °F 87% 29.95 in 6.2 mi Calm Calm - N/A   Mostly Cloudy
8:20 AM 51.8 °F - 44.6 °F 76% 29.98 in 6.2 mi NE 5.8 mph - N/A   Scattered Clouds
8:50 AM 55.4 °F - 41.0 °F 58% 29.98 in 6.2 mi North 5.8 mph - N/A   Partly Cloudy
9:20 AM 57.2 °F - 39.2 °F 51% 29.98 in 6.2 mi NNE 5.8 mph - N/A   Partly Cloudy
9:50 AM 57.2 °F - 41.0 °F 55% 29.98 in 6.2 mi North 5.8 mph - N/A   Partly Cloudy
10:20 AM 59.0 °F - 42.8 °F 55% 29.95 in 6.2 mi NE 4.6 mph - N/A   Partly Cloudy
10:50 AM 60.8 °F - 42.8 °F 52% 29.95 in 6.2 mi NE 3.5 mph - N/A   Partly Cloudy
11:20 AM 60.8 °F - 41.0 °F 48% 29.95 in 6.2 mi Variable 2.3 mph - N/A   Partly Cloudy
11:50 AM 62.6 °F - 41.0 °F 45% 29.95 in 6.2 mi East 3.5 mph - N/A   Partly Cloudy
12:20 PM 62.6 °F - 41.0 °F 45% 29.92 in 6.2 mi West 4.6 mph - N/A   Partly Cloudy
12:50 PM 64.4 °F - 39.2 °F 40% 29.92 in 6.2 mi SE 3.5 mph - N/A   Scattered Clouds
1:20 PM 64.4 °F - 41.0 °F 42% 29.92 in 6.2 mi Variable 4.6 mph - N/A   Scattered Clouds
1:50 PM 64.4 °F - 41.0 °F 42% 29.89 in 6.2 mi Variable 3.5 mph - N/A   Scattered Clouds
2:20 PM 64.4 °F - 39.2 °F 40% 29.89 in 6.2 mi SSE 6.9 mph - N/A   Scattered Clouds
2:50 PM 64.4 °F - 42.8 °F 45% 29.89 in 6.2 mi SSW 9.2 mph - N/A   Scattered Clouds
3:20 PM 62.6 °F - 46.4 °F 55% 29.89 in 6.2 mi South 12.7 mph - N/A   Scattered Clouds
3:50 PM 60.8 °F - 44.6 °F 55% 29.92 in 6.2 mi SSW 13.8 mph - N/A   Scattered Clouds
4:20 PM 60.8 °F - 44.6 °F 55% 29.92 in 6.2 mi SSW 11.5 mph - N/A   Scattered Clouds
4:50 PM 57.2 °F - 44.6 °F 63% 29.92 in 6.2 mi SW 9.2 mph - N/A   Scattered Clouds
5:20 PM 55.4 °F - 44.6 °F 67% 29.92 in 3.1 mi SW 5.8 mph - N/A   Haze
5:50 PM 53.6 °F - 44.6 °F 72% 29.92 in 3.1 mi WSW 3.5 mph - N/A   Scattered Clouds
6:20 PM 53.6 °F - 44.6 °F 72% 29.92 in 3.1 mi SW 3.5 mph - N/A   Scattered Clouds
6:50 PM 53.6 °F - 44.6 °F 72% 29.95 in 3.1 mi Variable 1.2 mph - N/A   Scattered Clouds
7:20 PM 51.8 °F - 44.6 °F 76% 29.95 in 3.1 mi Calm Calm - N/A   Scattered Clouds
7:50 PM 51.8 °F - 44.6 °F 76% 29.95 in 3.1 mi Variable 1.2 mph - N/A   Scattered Clouds
8:20 PM 51.8 °F - 44.6 °F 76% 29.95 in 3.1 mi NE 3.5 mph - N/A   Scattered Clouds
8:50 PM 51.8 °F - 44.6 °F 76% 29.95 in 3.1 mi Variable 2.3 mph - N/A   Scattered Clouds
9:20 PM 50.0 °F - 42.8 °F 76% 29.95 in 3.1 mi Variable 2.3 mph - N/A   Scattered Clouds
9:50 PM 50.0 °F - 44.6 °F 82% 29.95 in 3.1 mi Calm Calm - N/A   Scattered Clouds
10:20 PM 48.2 °F - 44.6 °F 87% 29.95 in 3.1 mi SE 4.6 mph - N/A   Scattered Clouds
10:50 PM 50.0 °F - 46.4 °F 87% 29.95 in 3.1 mi NE 8.1 mph - N/A   Scattered Clouds
11:20 PM 50.0 °F - 44.6 °F 82% 29.95 in 3.1 mi NNE 8.1 mph - N/A   Mostly Cloudy
11:50 PM 50.0 °F - 42.8 °F 76% 29.95 in 3.1 mi NE 9.2 mph - N/A   Mostly Cloudy